This is the latest recevied weather packets stored in our database for station/object K2HF. If no packets are shown the sender has not sent any weather packets the latest 1 day(s).
| Time | Temp. | Humidity | Pressure | Rain* | Wind** | Luminosity | Snow |
|---|---|---|---|---|---|---|---|
| 1778040646 | 15.56° C | 100% | 1010.9 hPa | 0 mm | 1.79 m/s, 147° | - | - |
| 1778040584 | 15.56° C | 100% | 1010.9 hPa | 0 mm | 1.79 m/s, 146° | - | - |
| 1778040523 | 15.56° C | 100% | 1010.7 hPa | 0 mm | 1.79 m/s, 146° | - | - |
| 1778040462 | 15.56° C | 100% | 1010.9 hPa | 0 mm | 1.34 m/s, 146° | - | - |
| 1778040401 | 15.56° C | 100% | 1010.9 hPa | 0 mm | 1.34 m/s, 143° | - | - |
| 1778040341 | 15.56° C | 100% | 1010.8 hPa | 0 mm | 1.34 m/s, 141° | - | - |
| 1778040280 | 15.56° C | 100% | 1010.8 hPa | 0 mm | 1.34 m/s, 139° | - | - |
| 1778040219 | 15.56° C | 100% | 1010.8 hPa | 0 mm | 1.34 m/s, 136° | - | - |
| 1778040158 | 15° C | 100% | 1010.8 hPa | 0 mm | 1.34 m/s, 135° | - | - |
| 1778040099 | 15° C | 100% | 1010.9 hPa | 0 mm | 1.34 m/s, 181° | - | - |
| 1778040035 | 15° C | 100% | 1010.8 hPa | 0 mm | 1.34 m/s, 181° | - | - |
| 1778039976 | 15° C | 100% | 1011 hPa | 0 mm | 1.34 m/s, 181° | - | - |
| 1778039917 | 15° C | 100% | 1010.9 hPa | 0 mm | 1.79 m/s, 182° | - | - |
| 1778039857 | 15° C | 100% | 1010.8 hPa | 0 mm | 1.34 m/s, 181° | - | - |
| 1778039796 | 15° C | 100% | 1011 hPa | 0 mm | 1.34 m/s, 182° | - | - |
| 1778039737 | 15° C | 100% | 1010.9 hPa | 0 mm | 1.34 m/s, 181° | - | - |
| 1778039677 | 15° C | 100% | 1011 hPa | 0 mm | 1.34 m/s, 181° | - | - |
| 1778039613 | 15° C | 100% | 1010.9 hPa | 0 mm | 1.34 m/s, 181° | - | - |
| 1778039554 | 15° C | 100% | 1010.8 hPa | 0 mm | 1.34 m/s, 182° | - | - |
| 1778039493 | 15° C | 100% | 1010.9 hPa | 0 mm | 1.34 m/s, 181° | - | - |
| 1778039432 | 15° C | 100% | 1011 hPa | 0 mm | 1.34 m/s, 183° | - | - |
| 1778039372 | 15° C | 100% | 1010.9 hPa | 0 mm | 1.79 m/s, 182° | - | - |
| 1778039313 | 15° C | 100% | 1011 hPa | 0 mm | 1.34 m/s, 182° | - | - |
| 1778039254 | 15° C | 100% | 1010.8 hPa | 0 mm | 1.79 m/s, 181° | - | - |
| 1778039241 | 15° C | 100% | 1010.9 hPa | 0 mm | 1.79 m/s, 181° | - | - |
* Rain latest hour (hover to see other rain measurements)
** Current wind speed in m/s (hover to see current wind gust speed)